• In Netherlands
  • List of Countries
  • For 7 days
  • Water Temperature
  • Satellite Maps
  • Weather Map
  • Weather Widgets
  • user-avatar
    Login

    Hourly Weather Biskira

    Today, 21 July, Friday

    Time Temperature Precipitation Wind Pressure Humidity
    00:00 +40°C° 0 mm 3 mps 748 mmHg 18%
    01:00 +39°C° 0 mm 3 mps 748 mmHg 19%
    02:00 +39°C° 0 mm 3 mps 748 mmHg 20%
    03:00 +38°C° 0 mm 2 mps 748 mmHg 21%
    04:00 +38°C° 0 mm 3 mps 748 mmHg 21%
    05:00 +38°C° 0 mm 3 mps 748 mmHg 22%
    06:00 +38°C° 0 mm 4 mps 749 mmHg 23%
    07:00 +40°C° 0.1 mm 4 mps 749 mmHg 22%
    08:00 +40°C° 0.1 mm 4 mps 749 mmHg 21%
    09:00 +41°C° 0.1 mm 4 mps 749 mmHg 20%
    10:00 +43°C° 0 mm 4 mps 749 mmHg 18%
    11:00 +44°C° 0 mm 4 mps 749 mmHg 16%
    12:00 +47°C° 0 mm 4 mps 749 mmHg 14%
    13:00 +47°C° 0 mm 4 mps 749 mmHg 13%
    14:00 +48°C° 0 mm 4 mps 748 mmHg 12%
    15:00 +48°C° 0 mm 4 mps 748 mmHg 11%
    16:00 +48°C° 0 mm 4 mps 748 mmHg 12%
    17:00 +48°C° 0 mm 4 mps 748 mmHg 12%
    18:00 +47°C° 0 mm 4 mps 748 mmHg 12%
    19:00 +47°C° 0 mm 4 mps 749 mmHg 13%
    20:00 +45°C° 0 mm 3 mps 749 mmHg 14%
    21:00 +44°C° 0 mm 3 mps 750 mmHg 15%
    22:00 +43°C° 0 mm 4 mps 750 mmHg 16%
    23:00 +42°C° 0 mm 4 mps 750 mmHg 17%

    Tomorrow, 22 July, Saturday

    Time Temperature Precipitation Wind Pressure Humidity
    00:00 +42°C° 0 mm 4 mps 750 mmHg 18%
    01:00 +41°C° 0 mm 4 mps 750 mmHg 19%
    02:00 +40°C° 0 mm 4 mps 750 mmHg 20%
    03:00 +40°C° 0 mm 4 mps 750 mmHg 22%
    04:00 +40°C° 0 mm 4 mps 750 mmHg 23%
    05:00 +39°C° 0 mm 5 mps 751 mmHg 25%
    06:00 +39°C° 0 mm 5 mps 751 mmHg 27%
    07:00 +40°C° 0 mm 6 mps 751 mmHg 24%
    08:00 +41°C° 0 mm 6 mps 752 mmHg 22%
    09:00 +43°C° 0 mm 7 mps 752 mmHg 20%
    10:00 +44°C° 0 mm 7 mps 752 mmHg 18%
    11:00 +46°C° 0 mm 6 mps 752 mmHg 16%
    12:00 +47°C° 0 mm 6 mps 752 mmHg 14%
    13:00 +48°C° 0 mm 6 mps 751 mmHg 13%
    14:00 +48°C° 0 mm 5 mps 751 mmHg 12%
    15:00 +49°C° 0 mm 5 mps 751 mmHg 11%
    16:00 +49°C° 0 mm 5 mps 751 mmHg 12%
    17:00 +48°C° 0 mm 5 mps 751 mmHg 12%
    18:00 +48°C° 0 mm 5 mps 751 mmHg 12%
    19:00 +47°C° 0 mm 4 mps 751 mmHg 13%
    20:00 +45°C° 0 mm 4 mps 752 mmHg 14%
    21:00 +43°C° 0 mm 4 mps 752 mmHg 14%
    22:00 +43°C° 0.1 mm 4 mps 753 mmHg 15%
    23:00 +42°C° 0.1 mm 3 mps 753 mmHg 16%

    Day after tomorrow, 23 July, Sunday

    Time Temperature Precipitation Wind Pressure Humidity
    00:00 +40°C° 0.1 mm 3 mps 753 mmHg 17%
    01:00 +40°C° 0 mm 3 mps 753 mmHg 18%
    02:00 +40°C° 0 mm 3 mps 753 mmHg 19%
    03:00 +40°C° 0 mm 4 mps 753 mmHg 19%
    04:00 +40°C° 0 mm 4 mps 753 mmHg 20%
    05:00 +40°C° 0 mm 4 mps 754 mmHg 21%
    06:00 +40°C° 0 mm 4 mps 754 mmHg 22%
    07:00 +41°C° 0 mm 4 mps 754 mmHg 20%
    08:00 +43°C° 0 mm 5 mps 754 mmHg 18%
    09:00 +45°C° 0 mm 5 mps 754 mmHg 15%
    10:00 +45°C° 0 mm 4 mps 754 mmHg 14%
    11:00 +47°C° 0 mm 4 mps 754 mmHg 13%
    12:00 +48°C° 0 mm 4 mps 754 mmHg 12%
    13:00 +49°C° 0 mm 4 mps 753 mmHg 11%
    14:00 +49°C° 0 mm 4 mps 753 mmHg 11%
    15:00 +49°C° 0 mm 4 mps 752 mmHg 10%
    16:00 +48°C° 0 mm 3 mps 752 mmHg 10%
    17:00 +48°C° 0 mm 3 mps 752 mmHg 10%
    18:00 +48°C° 0 mm 3 mps 752 mmHg 10%
    19:00 +46°C° 0 mm 3 mps 752 mmHg 11%
    20:00 +45°C° 0 mm 2 mps 753 mmHg 12%
    21:00 +43°C° 0 mm 2 mps 753 mmHg 14%
    22:00 +42°C° 0 mm 2 mps 753 mmHg 14%
    23:00 +41°C° 0 mm 2 mps 753 mmHg 15%

    24 July, Monday

    Time Temperature Precipitation Wind Pressure Humidity
    00:00 +41°C° 0 mm 2 mps 753 mmHg 16%
    01:00 +40°C° 0 mm 3 mps 752 mmHg 17%
    02:00 +40°C° 0 mm 3 mps 752 mmHg 18%
    03:00 +41°C° 0 mm 4 mps 751 mmHg 19%
    04:00 +39°C° 0 mm 3 mps 752 mmHg 20%
    05:00 +39°C° 0 mm 3 mps 752 mmHg 20%
    06:00 +39°C° 0 mm 3 mps 752 mmHg 20%
    07:00 +42°C° 0 mm 4 mps 752 mmHg 18%
    08:00 +44°C° 0 mm 4 mps 752 mmHg 16%
    09:00 +46°C° 0 mm 5 mps 752 mmHg 14%
    10:00 +47°C° 0 mm 5 mps 751 mmHg 13%
    11:00 +48°C° 0 mm 5 mps 751 mmHg 11%
    12:00 +49°C° 0 mm 5 mps 751 mmHg 9%
    13:00 +50°C° 0 mm 5 mps 750 mmHg 9%
    14:00 +51°C° 0 mm 6 mps 750 mmHg 8%
    15:00 +51°C° 0 mm 6 mps 749 mmHg 8%
    16:00 +50°C° 0 mm 7 mps 749 mmHg 10%
    17:00 +49°C° 0 mm 9 mps 749 mmHg 11%
    18:00 +48°C° 0 mm 11 mps 749 mmHg 13%
    19:00 +46°C° 0 mm 8 mps 750 mmHg 13%
    20:00 +46°C° 0 mm 6 mps 750 mmHg 14%
    21:00 +44°C° 0 mm 3 mps 750 mmHg 15%
    22:00 +43°C° 0.1 mm 3 mps 750 mmHg 16%
    23:00 +42°C° 0.1 mm 3 mps 750 mmHg 18%

    25 July, Tuesday

    Time Temperature Precipitation Wind Pressure Humidity
    00:00 +40°C° 0.1 mm 2 mps 750 mmHg 19%
    01:00 +40°C° 0.1 mm 2 mps 749 mmHg 22%
    02:00 +39°C° 0.1 mm 2 mps 749 mmHg 25%
    03:00 +38°C° 0.1 mm 2 mps 749 mmHg 27%
    04:00 +38°C° 0.1 mm 2 mps 749 mmHg 28%
    05:00 +38°C° 0.1 mm 3 mps 750 mmHg 29%
    06:00 +38°C° 0.1 mm 3 mps 750 mmHg 29%
    07:00 +39°C° 0 mm 3 mps 750 mmHg 27%
    08:00 +39°C° 0 mm 3 mps 750 mmHg 25%
    09:00 +40°C° 0 mm 3 mps 750 mmHg 23%
    10:00 +42°C° 0 mm 3 mps 750 mmHg 20%
    11:00 +43°C° 0 mm 3 mps 749 mmHg 16%
    12:00 +44°C° 0 mm 4 mps 749 mmHg 13%
    13:00 +45°C° 0 mm 4 mps 748 mmHg 12%
    14:00 +47°C° 0 mm 5 mps 748 mmHg 11%
    15:00 +47°C° 0 mm 5 mps 748 mmHg 11%
    16:00 +47°C° 0 mm 5 mps 748 mmHg 11%
    17:00 +46°C° 0 mm 5 mps 748 mmHg 11%
    18:00 +45°C° 0 mm 4 mps 748 mmHg 12%
    19:00 +44°C° 0 mm 4 mps 748 mmHg 14%
    20:00 +43°C° 0 mm 3 mps 749 mmHg 16%
    21:00 +42°C° 0 mm 3 mps 749 mmHg 18%
    22:00 +39°C° 0 mm 3 mps 749 mmHg 21%
    23:00 +38°C° 0 mm 4 mps 749 mmHg 25%

    26 July, Wednesday

    Time Temperature Precipitation Wind Pressure Humidity
    00:00 +37°C° 0 mm 4 mps 749 mmHg 28%
    01:00 +36°C° 0 mm 4 mps 749 mmHg 33%
    02:00 +35°C° 0 mm 4 mps 750 mmHg 37%
    03:00 +34°C° 0 mm 4 mps 750 mmHg 42%
    04:00 +33°C° 0 mm 4 mps 750 mmHg 43%
    05:00 +33°C° 0 mm 3 mps 751 mmHg 45%
    06:00 +33°C° 0 mm 3 mps 751 mmHg 46%
    07:00 +34°C° 0 mm 2 mps 751 mmHg 43%
    08:00 +34°C° 0 mm 2 mps 752 mmHg 40%
    09:00 +35°C° 0 mm 2 mps 752 mmHg 37%
    10:00 +37°C° 0 mm 2 mps 751 mmHg 33%
    11:00 +38°C° 0 mm 2 mps 751 mmHg 29%
    12:00 +39°C° 0 mm 2 mps 751 mmHg 25%
    13:00 +40°C° 0 mm 3 mps 750 mmHg 22%
    14:00 +42°C° 0 mm 3 mps 750 mmHg 20%
    15:00 +43°C° 0 mm 4 mps 750 mmHg 17%
    16:00 +43°C° 0 mm 4 mps 750 mmHg 17%
    17:00 +43°C° 0 mm 4 mps 750 mmHg 17%
    18:00 +43°C° 0 mm 4 mps 750 mmHg 16%
    19:00 +42°C° 0 mm 4 mps 750 mmHg 17%
    20:00 +41°C° 0 mm 4 mps 751 mmHg 19%
    21:00 +39°C° 0 mm 3 mps 751 mmHg 20%
    22:00 +39°C° 0 mm 3 mps 751 mmHg 22%
    23:00 +38°C° 0 mm 3 mps 751 mmHg 24%
    Show more